{"data":{"norad_id":85426,"epoch":"2026-06-24T09:50:02.490720Z","epoch_age_seconds":7625084,"freshness":"OLD","line1":"1 85426U          26175.40975105  .00007017  00000+0  52456-3 0  9996","line2":"2 85426  97.6843 239.0304 0020248 262.6478  97.2446 15.02934771  1862","mean_motion":15.02934771,"eccentricity":0.0020248,"inclination_deg":97.6843,"raan_deg":239.0304,"arg_perigee_deg":262.6478,"mean_anomaly_deg":97.2446,"bstar":0.00052456,"rev_number":186,"period_min":95.812541421334,"perigee_km":543.80839495645,"apogee_km":571.89637757507,"semimajor_km":6935.9893862658,"source":"CELESTRAK","updated_at":"2026-07-24T09:00:47.687891Z"}}